,,Stat5,,Stat1,,Stat2,,Stat3,,Stat4,,Wind1,,Wind1,
time,status,PA1M_AVG,status,PR1M_SUM,status,RH1M_AVG,status,SR1M_AVG,status,TA1M_AVG,status,W1dAve1m,status,W1sAve1m,
2000-10-13, 00:00:00,VALID,917.187,VALID,0,VALID,99.7383,VALID,0,VALID,19.2656,VALID,227,VALID,1.2123,
2000-10-13, 00:01:00,VALID,917.168,VALID,0,VALID,99.751,VALID,-0.0339617,VALID,19.2795,VALID,232,VALID,0.759415,
2000-10-13, 00:02:00,VALID,917.147,VALID,0,VALID,99.7663,VALID,-0.0339617,VALID,19.2666,VALID,218,VALID,0.674219,
2000-10-13, 00:03:00,VALID,917.137,VALID,0,VALID,99.7701,VALID,0,VALID,19.2529,VALID,188,VALID,0.827925,
2000-10-13, 00:04:00,VALID,917.12,VALID,0,VALID,99.7714,VALID,0,VALID,19.2599,VALID,190,VALID,1.18113,
2000-10-13, 00:05:00,VALID,917.1,VALID,0,VALID,99.7765,VALID,0.0169808,VALID,19.2601,VALID,187,VALID,0.738898,
2000-10-13, 00:06:00,VALID,917.103,VALID,0,VALID,99.7777,VALID,-0.0169808,VALID,19.2534,VALID,186,VALID,0.997196,
2000-10-13, 00:07:00,VALID,917.093,VALID,0,VALID,99.7854,VALID,0,VALID,19.2529,VALID,160,VALID,0.776563,
2000-10-13, 00:08:00,VALID,917.092,VALID,0,VALID,99.8032,VALID,0,VALID,19.2795,VALID,130,VALID,0.766047,
2000-10-13, 00:09:00,VALID,917.06,VALID,0,VALID,99.8019,VALID,0,VALID,19.2822,VALID,173,VALID,0.613782,
2000-10-13, 00:10:00,VALID,917.033,VALID,0,VALID,99.821,VALID,-0.0169808,VALID,19.2889,VALID,148,VALID,0.752003,
2000-10-13, 00:11:00,VALID,917.02,VALID,0,VALID,99.8032,VALID,-0.0169808,VALID,19.273,VALID,133,VALID,1.23754,
2000-10-13, 00:12:00,VALID,916.989,VALID,0,VALID,99.8108,VALID,-0.0169808,VALID,19.273,VALID,146,VALID,0.748561,
2000-10-13, 00:13:00,VALID,916.974,VALID,0,VALID,99.7777,VALID,0,VALID,19.234,VALID,168,VALID,1.12109,
2000-10-13, 00:14:00,VALID,916.945,VALID,0,VALID,99.7917,VALID,-0.0339617,VALID,19.2179,VALID,182,VALID,0.596354,
2000-10-13, 00:15:00,VALID,916.921,VALID,0,VALID,99.7879,VALID,-0.0339617,VALID,19.2087,VALID,167,VALID,0.658654,
2000-10-13, 00:16:00,VALID,916.89,VALID,0,VALID,99.8146,VALID,-0.0169808,VALID,19.2015,VALID,122,VALID,0.693668,
2000-10-13, 00:17:00,VALID,916.86,VALID,0,VALID,99.8311,VALID,-0.0169808,VALID,19.2211,VALID,106,VALID,1.08319,
2000-10-13, 00:18:00,VALID,916.83,VALID,0,VALID,99.8082,VALID,-0.0339617,VALID,19.2017,VALID,107,VALID,1.15507,
2000-10-13, 00:19:00,VALID,916.817,VALID,0,VALID,99.8184,VALID,-0.0169808,VALID,19.1881,VALID,86,VALID,1.09807,
2000-10-13, 00:20:00,VALID,916.805,VALID,0,VALID,99.8159,VALID,-0.0509425,VALID,19.192,VALID,104,VALID,0.957137,
2000-10-13, 00:21:00,VALID,916.793,VALID,0,VALID,99.826,VALID,0,VALID,19.1957,VALID,113,VALID,0.272768,
2000-10-13, 00:22:00,VALID,916.807,VALID,0,VALID,99.8222,VALID,0,VALID,19.1823,VALID,121,VALID,0.0901786,
2000-10-13, 00:23:00,VALID,916.797,VALID,0,VALID,99.8451,VALID,0,VALID,19.192,VALID,121,VALID,0,
2000-10-13, 00:24:00,VALID,916.794,VALID,0,VALID,99.8362,VALID,0,VALID,19.1853,VALID,121,VALID,0,
2000-10-13, 00:25:00,VALID,916.797,VALID,0,VALID,99.8451,VALID,-0.0169808,VALID,19.1893,VALID,121,VALID,0,
2000-10-13, 00:26:00,VALID,916.794,VALID,0,VALID,99.8464,VALID,-0.0509425,VALID,19.1858,VALID,121,VALID,0,
2000-10-13, 00:27:00,VALID,916.786,VALID,0,VALID,99.8515,VALID,0,VALID,19.1856,VALID,121,VALID,0,
2000-10-13, 00:28:00,VALID,916.797,VALID,0,VALID,99.8578,VALID,-0.0169808,VALID,19.1957,VALID,120,VALID,0,
2000-10-13, 00:29:00,VALID,916.804,VALID,0,VALID,99.8578,VALID,0,VALID,19.189,VALID,118,VALID,0,
2000-10-13, 00:30:00,VALID,916.809,VALID,0,VALID,99.8426,VALID,0,VALID,19.1793,VALID,117,VALID,0.141314,
2000-10-13, 00:31:00,VALID,916.786,VALID,0,VALID,99.8375,VALID,0,VALID,19.1729,VALID,131,VALID,0.242857,
2000-10-13, 00:32:00,VALID,916.777,VALID,0,VALID,99.807,VALID,-0.0169808,VALID,19.15,VALID,157,VALID,0.439103,
2000-10-13, 00:33:00,VALID,916.769,VALID,0,VALID,99.8044,VALID,0,VALID,19.1242,VALID,176,VALID,0.395904,
2000-10-13, 00:34:00,VALID,916.764,VALID,0,VALID,99.8235,VALID,-0.0339617,VALID,19.115,VALID,172,VALID,0.33676,
2000-10-13, 00:35:00,VALID,916.761,VALID,0,VALID,99.8184,VALID,-0.0169808,VALID,19.0951,VALID,170,VALID,0.309598,
2000-10-13, 00:36:00,VALID,916.755,VALID,0,VALID,99.8159,VALID,0,VALID,19.0887,VALID,170,VALID,0.403446,
2000-10-13, 00:37:00,VALID,916.733,VALID,0,VALID,99.8235,VALID,0,VALID,19.0792,VALID,172,VALID,0.4259,
2000-10-13, 00:38:00,VALID,916.707,VALID,0,VALID,99.8273,VALID,-0.0169808,VALID,19.0631,VALID,187,VALID,0.640191,
2000-10-13, 00:39:00,VALID,916.682,VALID,0,VALID,99.8502,VALID,0,VALID,19.0799,VALID,206,VALID,0.592311,
2000-10-13, 00:40:00,VALID,916.672,VALID,0,VALID,99.8477,VALID,-0.0169808,VALID,19.0792,VALID,204,VALID,0.681891,
2000-10-13, 00:41:00,VALID,916.638,VALID,0,VALID,99.8655,VALID,0,VALID,19.0891,VALID,222,VALID,0.94707,
2000-10-13, 00:42:00,VALID,916.624,VALID,0,VALID,99.8769,VALID,0,VALID,19.0887,VALID,214,VALID,0.973214,
2000-10-13, 00:43:00,VALID,916.607,VALID,0,VALID,99.8629,VALID,0,VALID,19.1085,VALID,212,VALID,0.863809,
2000-10-13, 00:44:00,VALID,916.577,VALID,0,VALID,99.8591,VALID,0,VALID,19.1018,VALID,217,VALID,0.926471,
2000-10-13, 00:45:00,VALID,916.549,VALID,0,VALID,99.8731,VALID,0,VALID,19.0986,VALID,224,VALID,0.987054,
2000-10-13, 00:46:00,VALID,916.52,VALID,0,VALID,99.8706,VALID,0,VALID,19.1085,VALID,219,VALID,0.65645,
2000-10-13, 00:47:00,VALID,916.495,VALID,0,VALID,99.8744,VALID,-0.0169808,VALID,19.0951,VALID,210,VALID,1.17462,
2000-10-13, 00:48:00,VALID,916.479,VALID,0,VALID,99.8756,VALID,0,VALID,19.0988,VALID,213,VALID,0.941201,
2000-10-13, 00:49:00,VALID,916.457,VALID,0,VALID,99.8769,VALID,0,VALID,19.0792,VALID,213,VALID,1.12656,
2000-10-13, 00:50:00,VALID,916.436,VALID,0,VALID,99.8884,VALID,0,VALID,19.0894,VALID,219,VALID,0.880609,
2000-10-13, 00:51:00,VALID,916.415,VALID,0,VALID,99.8756,VALID,-0.0169808,VALID,19.0924,VALID,213,VALID,0.977983,
2000-10-13, 00:52:00,VALID,916.391,VALID,0,VALID,99.8807,VALID,0,VALID,19.0795,VALID,200,VALID,0.750868,
2000-10-13, 00:53:00,VALID,916.377,VALID,0,VALID,99.8985,VALID,0,VALID,19.0598,VALID,194,VALID,0.507607,
2000-10-13, 00:54:00,VALID,916.366,VALID,0,VALID,99.8934,VALID,-0.0339617,VALID,19.0765,VALID,223,VALID,0.569311,
2000-10-13, 00:55:00,VALID,916.351,VALID,0,VALID,99.8896,VALID,0,VALID,19.0598,VALID,190,VALID,0.443945,
2000-10-13, 00:56:00,VALID,916.352,VALID,0,VALID,99.8998,VALID,-0.0339617,VALID,19.0635,VALID,201,VALID,0.612277,
2000-10-13, 00:57:00,VALID,916.35,VALID,0,VALID,99.8845,VALID,0,VALID,19.0539,VALID,192,VALID,0.692145,
2000-10-13, 00:58:00,VALID,916.356,VALID,0,VALID,99.8909,VALID,0,VALID,19.0308,VALID,189,VALID,0.926471,
2000-10-13, 00:59:00,VALID,916.345,VALID,0,VALID,99.8884,VALID,0,VALID,19.0342,VALID,200,VALID,0.575893,
2000-10-13, 01:00:00,VALID,916.346,VALID,0,VALID,99.8833,VALID,-0.0169808,VALID,19.0181,VALID,161,VALID,0,
2000-10-13, 01:01:00,VALID,916.336,VALID,0,VALID,99.8858,VALID,0,VALID,18.9985,VALID,166,VALID,0.14886,
2000-10-13, 01:02:00,VALID,916.335,VALID,0,VALID,99.9023,VALID,0,VALID,18.9925,VALID,153,VALID,0.697368,
2000-10-13, 01:03:00,VALID,916.317,VALID,0,VALID,99.896,VALID,0.0339617,VALID,18.9918,VALID,161,VALID,0.945982,
2000-10-13, 01:04:00,VALID,916.303,VALID,0,VALID,99.9049,VALID,0,VALID,18.9895,VALID,171,VALID,0.798077,
2000-10-13, 01:05:00,VALID,916.296,VALID,0,VALID,99.9062,VALID,-0.0169808,VALID,18.9761,VALID,175,VALID,0.516572,
2000-10-13, 01:06:00,VALID,916.279,VALID,0,VALID,99.9074,VALID,0,VALID,18.9766,VALID,169,VALID,0.802517,
2000-10-13, 01:07:00,VALID,916.263,VALID,0,VALID,99.9189,VALID,0,VALID,18.9597,VALID,171,VALID,0.959087,
2000-10-13, 01:08:00,VALID,916.25,VALID,0,VALID,99.9011,VALID,0,VALID,18.9567,VALID,175,VALID,0.441506,
2000-10-13, 01:09:00,VALID,916.243,VALID,0,VALID,99.9163,VALID,-0.0169808,VALID,18.9473,VALID,178,VALID,0.792188,
2000-10-13, 01:10:00,VALID,916.218,VALID,0,VALID,99.9265,VALID,0.0169808,VALID,18.9373,VALID,171,VALID,0.813393,
2000-10-13, 01:11:00,VALID,916.203,VALID,0,VALID,99.9329,VALID,0,VALID,18.9507,VALID,175,VALID,0.565034,
2000-10-13, 01:12:00,VALID,916.176,VALID,0,VALID,99.9341,VALID,0,VALID,18.9475,VALID,189,VALID,0.535156,
2000-10-13, 01:13:00,VALID,916.172,VALID,0,VALID,99.9316,VALID,0,VALID,18.9408,VALID,194,VALID,0.453125,
2000-10-13, 01:14:00,VALID,916.167,VALID,0,VALID,99.9278,VALID,0.0339617,VALID,18.9406,VALID,201,VALID,0.196514,
2000-10-13, 01:15:00,VALID,916.15,VALID,0,VALID,99.9278,VALID,0,VALID,18.9172,VALID,207,VALID,0,
2000-10-13, 01:16:00,VALID,916.15,VALID,0,VALID,99.9392,VALID,-0.0509425,VALID,18.9184,VALID,207,VALID,0,
2000-10-13, 01:17:00,VALID,916.139,VALID,0,VALID,99.9367,VALID,-0.0849042,VALID,18.9154,VALID,207,VALID,0,
2000-10-13, 01:18:00,VALID,916.116,VALID,0,VALID,99.9354,VALID,-0.0509425,VALID,18.9187,VALID,207,VALID,0,
2000-10-13, 01:19:00,VALID,916.094,VALID,0,VALID,99.9367,VALID,-0.0679233,VALID,18.912,VALID,208,VALID,0,
2000-10-13, 01:20:00,VALID,916.092,VALID,0,VALID,99.943,VALID,-0.0169808,VALID,18.9117,VALID,209,VALID,0,
2000-10-13, 01:21:00,VALID,916.074,VALID,0,VALID,99.9341,VALID,-0.118866,VALID,18.8988,VALID,218,VALID,0.600329,
2000-10-13, 01:22:00,VALID,916.07,VALID,0,VALID,99.929,VALID,-0.0679233,VALID,18.8956,VALID,215,VALID,0.859776,
2000-10-13, 01:23:00,VALID,916.068,VALID,0,VALID,99.9163,VALID,-0.0339617,VALID,18.8697,VALID,205,VALID,0.935742,
2000-10-13, 01:24:00,VALID,916.064,VALID,0,VALID,99.9036,VALID,-0.101885,VALID,18.831,VALID,209,VALID,0.734821,
2000-10-13, 01:25:00,VALID,916.042,VALID,0,VALID,99.9087,VALID,-0.0339617,VALID,18.8183,VALID,215,VALID,1.16976,
2000-10-13, 01:26:00,VALID,916.023,VALID,0,VALID,99.9151,VALID,-0.0679233,VALID,18.7994,VALID,216,VALID,1.14959,
2000-10-13, 01:27:00,VALID,916.014,VALID,0,VALID,99.929,VALID,-0.0849042,VALID,18.7828,VALID,219,VALID,1.11049,
2000-10-13, 01:28:00,VALID,916.004,VALID,0,VALID,99.957,VALID,-0.0339617,VALID,18.7892,VALID,216,VALID,1.41026,
2000-10-13, 01:29:00,VALID,915.987,VALID,0,VALID,99.9596,VALID,-0.0679233,VALID,18.8123,VALID,219,VALID,1.36888,
2000-10-13, 01:30:00,VALID,915.984,VALID,0,VALID,99.9748,VALID,-0.0509425,VALID,18.8155,VALID,225,VALID,1.29975,
2000-10-13, 01:31:00,VALID,915.97,VALID,0,VALID,99.9812,VALID,0,VALID,18.8139,VALID,217,VALID,1.12924,
2000-10-13, 01:32:00,VALID,915.959,VALID,0,VALID,99.9886,VALID,0.0169808,VALID,18.83,VALID,221,VALID,1.23678,
2000-10-13, 01:33:00,VALID,915.95,VALID,0,VALID,99.9919,VALID,0.0509425,VALID,18.8298,VALID,218,VALID,0.844643,
2000-10-13, 01:34:00,VALID,915.944,VALID,0,VALID,99.9977,VALID,0.0849042,VALID,18.833,VALID,222,VALID,0.847873,
2000-10-13, 01:35:00,VALID,915.95,VALID,0,VALID,99.998,VALID,0.0849042,VALID,18.8459,VALID,240,VALID,0.642475,
2000-10-13, 01:36:00,VALID,915.959,VALID,0,VALID,99.9954,VALID,0.0339617,VALID,18.8492,VALID,230,VALID,0.702724,
2000-10-13, 01:37:00,VALID,915.968,VALID,0,VALID,100,VALID,0.0849042,VALID,18.8395,VALID,240,VALID,0.923633,
2000-10-13, 01:38:00,VALID,915.972,VALID,0,VALID,100,VALID,0.0849042,VALID,18.8526,VALID,230,VALID,0.851563,
2000-10-13, 01:39:00,VALID,915.966,VALID,0,VALID,100,VALID,0.0339617,VALID,18.8362,VALID,231,VALID,0.520693,
2000-10-13, 01:40:00,VALID,915.956,VALID,0,VALID,99.9916,VALID,0.0169808,VALID,18.83,VALID,219,VALID,0.568474,
2000-10-13, 01:41:00,VALID,915.952,VALID,0,VALID,99.9908,VALID,0.0509425,VALID,18.8049,VALID,210,VALID,0.718304,
2000-10-13, 01:42:00,VALID,915.94,VALID,0,VALID,99.9835,VALID,0.0339617,VALID,18.7587,VALID,207,VALID,0.685296,
2000-10-13, 01:43:00,VALID,915.947,VALID,0,VALID,99.999,VALID,0.0509425,VALID,18.7657,VALID,203,VALID,0.413218,
2000-10-13, 01:44:00,VALID,915.937,VALID,0,VALID,99.999,VALID,0.0509425,VALID,18.7562,VALID,172,VALID,0.0522204,
2000-10-13, 01:45:00,VALID,915.929,VALID,0,VALID,99.9608,VALID,0.0509425,VALID,18.6817,VALID,148,VALID,0,
2000-10-13, 01:46:00,VALID,915.922,VALID,0,VALID,99.929,VALID,0,VALID,18.5654,VALID,117,VALID,0,
2000-10-13, 01:47:00,VALID,915.91,VALID,0,VALID,99.9265,VALID,0.0169808,VALID,18.4941,VALID,120,VALID,0,
2000-10-13, 01:48:00,VALID,915.918,VALID,0,VALID,99.9634,VALID,0,VALID,18.4911,VALID,125,VALID,0,
2000-10-13, 01:49:00,VALID,915.932,VALID,0,VALID,99.9954,VALID,0.0169808,VALID,18.511,VALID,143,VALID,0.290502,
2000-10-13, 01:50:00,VALID,915.929,VALID,0,VALID,100,VALID,0,VALID,18.5172,VALID,150,VALID,0.714343,
2000-10-13, 01:51:00,VALID,915.919,VALID,0,VALID,100,VALID,0.0169808,VALID,18.5011,VALID,164,VALID,0.640039,
2000-10-13, 01:52:00,VALID,915.916,VALID,0,VALID,100,VALID,0.0339617,VALID,18.5043,VALID,175,VALID,0.790625,
2000-10-13, 01:53:00,VALID,915.916,VALID,0,VALID,100,VALID,0.0339617,VALID,18.553,VALID,186,VALID,0.708615,
2000-10-13, 01:54:00,VALID,915.915,VALID,0,VALID,100,VALID,0.0339617,VALID,18.5592,VALID,175,VALID,0.475414,
2000-10-13, 01:55:00,VALID,915.918,VALID,0,VALID,100,VALID,0.0169808,VALID,18.5723,VALID,180,VALID,0.66942,
2000-10-13, 01:56:00,VALID,915.903,VALID,0,VALID,100,VALID,0.0679233,VALID,18.5753,VALID,177,VALID,0.646434,
2000-10-13, 01:57:00,VALID,915.902,VALID,0,VALID,100,VALID,0.0509425,VALID,18.5883,VALID,188,VALID,0.918919,
2000-10-13, 01:58:00,VALID,915.869,VALID,0,VALID,100,VALID,0.0169808,VALID,18.6104,VALID,196,VALID,1.10362,
2000-10-13, 01:59:00,VALID,915.847,VALID,0,VALID,100,VALID,0.0339617,VALID,18.6265,VALID,185,VALID,1.13214,
2000-10-13, 02:00:00,VALID,915.836,VALID,0,VALID,100,VALID,0.0339617,VALID,18.6432,VALID,169,VALID,0.927885,
2000-10-13, 02:01:00,VALID,915.844,VALID,0,VALID,100,VALID,-0.0169808,VALID,18.6049,VALID,157,VALID,0.66785,
2000-10-13, 02:02:00,VALID,915.861,VALID,0,VALID,100,VALID,-0.0849042,VALID,18.5693,VALID,137,VALID,0.544922,
2000-10-13, 02:03:00,VALID,915.87,VALID,0,VALID,100,VALID,-0.0509425,VALID,18.5474,VALID,129,VALID,0.685033,
2000-10-13, 02:04:00,VALID,915.871,VALID,0,VALID,100,VALID,-0.0849042,VALID,18.5444,VALID,138,VALID,0.760617,
2000-10-13, 02:05:00,VALID,915.891,VALID,0,VALID,100,VALID,-0.0509425,VALID,18.5504,VALID,146,VALID,0.7875,
2000-10-13, 02:06:00,VALID,915.895,VALID,0,VALID,100,VALID,-0.0679233,VALID,18.5827,VALID,152,VALID,0.721429,
2000-10-13, 02:07:00,VALID,915.908,VALID,0,VALID,100,VALID,-0.0849042,VALID,18.612,VALID,146,VALID,0.806166,
2000-10-13, 02:08:00,VALID,915.887,VALID,0,VALID,99.9967,VALID,-0.0339617,VALID,18.5447,VALID,112,VALID,1.09352,
2000-10-13, 02:09:00,VALID,915.889,VALID,0,VALID,99.9634,VALID,-0.0509425,VALID,18.4406,VALID,111,VALID,0.872991,
2000-10-13, 02:10:00,VALID,915.907,VALID,0,VALID,99.9545,VALID,-0.0679233,VALID,18.3954,VALID,105,VALID,0.94351,
2000-10-13, 02:11:00,VALID,915.909,VALID,0,VALID,99.9708,VALID,-0.0849042,VALID,18.3829,VALID,109,VALID,0.756968,
2000-10-13, 02:12:00,VALID,915.926,VALID,0,VALID,99.9748,VALID,-0.0679233,VALID,18.344,VALID,99,VALID,0.815789,
2000-10-13, 02:13:00,VALID,915.944,VALID,0,VALID,99.9967,VALID,-0.0339617,VALID,18.3467,VALID,103,VALID,0.858705,
2000-10-13, 02:14:00,VALID,915.942,VALID,0,VALID,99.9967,VALID,-0.0679233,VALID,18.3472,VALID,110,VALID,0.688101,
2000-10-13, 02:15:00,VALID,915.933,VALID,0,VALID,99.999,VALID,-0.0339617,VALID,18.335,VALID,132,VALID,0.558949,
2000-10-13, 02:16:00,VALID,915.934,VALID,0,VALID,100,VALID,-0.0339617,VALID,18.3278,VALID,138,VALID,0.585503,
2000-10-13, 02:17:00,VALID,915.934,VALID,0,VALID,100,VALID,0,VALID,18.347,VALID,139,VALID,0.580798,
2000-10-13, 02:18:00,VALID,915.933,VALID,0,VALID,100,VALID,-0.0339617,VALID,18.3532,VALID,134,VALID,0.692508,
2000-10-13, 02:19:00,VALID,915.925,VALID,0,VALID,100,VALID,-0.0169808,VALID,18.3659,VALID,140,VALID,0.785156,
2000-10-13, 02:20:00,VALID,915.923,VALID,0,VALID,100,VALID,0,VALID,18.3786,VALID,158,VALID,0.73683,
2000-10-13, 02:21:00,VALID,915.927,VALID,0,VALID,100,VALID,0,VALID,18.4016,VALID,174,VALID,0.760769,
2000-10-13, 02:22:00,VALID,915.922,VALID,0,VALID,100,VALID,0,VALID,18.3855,VALID,180,VALID,0.862822,
2000-10-13, 02:23:00,VALID,915.943,VALID,0,VALID,100,VALID,0,VALID,18.3274,VALID,187,VALID,0.870982,
2000-10-13, 02:24:00,VALID,915.948,VALID,0,VALID,100,VALID,0,VALID,18.2761,VALID,204,VALID,0.784655,
2000-10-13, 02:25:00,VALID,915.969,VALID,0,VALID,100,VALID,-0.0169808,VALID,18.2955,VALID,213,VALID,0.751689,
2000-10-13, 02:26:00,VALID,915.985,VALID,0,VALID,100,VALID,0,VALID,18.2787,VALID,182,VALID,0.657072,
2000-10-13, 02:27:00,VALID,916.004,VALID,0,VALID,100,VALID,-0.0339617,VALID,18.2727,VALID,159,VALID,0.776563,
2000-10-13, 02:28:00,VALID,916.002,VALID,0,VALID,99.9964,VALID,0,VALID,18.1666,VALID,135,VALID,0.779447,
2000-10-13, 02:29:00,VALID,916.006,VALID,0,VALID,99.9921,VALID,-0.0339617,VALID,18.102,VALID,122,VALID,0.816525,
2000-10-13, 02:30:00,VALID,915.999,VALID,0,VALID,100,VALID,-0.0169808,VALID,18.1054,VALID,117,VALID,0.585286,
2000-10-13, 02:31:00,VALID,915.986,VALID,0,VALID,100,VALID,-0.0169808,VALID,18.0861,VALID,118,VALID,0.391653,
2000-10-13, 02:32:00,VALID,915.98,VALID,0,VALID,100,VALID,-0.0169808,VALID,18.0826,VALID,130,VALID,0.256811,
2000-10-13, 02:33:00,VALID,915.968,VALID,0,VALID,100,VALID,0,VALID,18.0498,VALID,129,VALID,0.331836,
2000-10-13, 02:34:00,VALID,915.972,VALID,0,VALID,100,VALID,-0.0169808,VALID,18.0141,VALID,127,VALID,0.245536,
2000-10-13, 02:35:00,VALID,915.96,VALID,0,VALID,100,VALID,0,VALID,18.0016,VALID,127,VALID,0.052576,
2000-10-13, 02:36:00,VALID,915.97,VALID,0,VALID,100,VALID,0.0169808,VALID,17.9915,VALID,127,VALID,0,
2000-10-13, 02:37:00,VALID,915.973,VALID,0,VALID,100,VALID,0,VALID,18.0302,VALID,127,VALID,0,
2000-10-13, 02:38:00,VALID,915.982,VALID,0,VALID,100,VALID,0,VALID,18.0828,VALID,127,VALID,0,
2000-10-13, 02:39:00,VALID,915.989,VALID,0,VALID,100,VALID,-0.0169808,VALID,18.0981,VALID,127,VALID,0,
2000-10-13, 02:40:00,VALID,915.998,VALID,0,VALID,100,VALID,0,VALID,18.1179,VALID,127,VALID,0,
2000-10-13, 02:41:00,VALID,915.999,VALID,0,VALID,100,VALID,0,VALID,18.147,VALID,127,VALID,0,
2000-10-13, 02:42:00,VALID,915.998,VALID,0,VALID,100,VALID,-0.0169808,VALID,18.1661,VALID,176,VALID,0,
2000-10-13, 02:43:00,VALID,915.997,VALID,0,VALID,100,VALID,-0.0339617,VALID,18.2055,VALID,176,VALID,0,
2000-10-13, 02:44:00,VALID,915.976,VALID,0,VALID,100,VALID,-0.0169808,VALID,18.2701,VALID,175,VALID,0.491536,
2000-10-13, 02:45:00,VALID,915.977,VALID,0,VALID,100,VALID,0,VALID,18.328,VALID,175,VALID,0.466488,
2000-10-13, 02:46:00,VALID,915.968,VALID,0,VALID,100,VALID,-0.0169808,VALID,18.3663,VALID,175,VALID,0.33153,
2000-10-13, 02:47:00,VALID,915.96,VALID,0,VALID,100,VALID,-0.0169808,VALID,18.4185,VALID,171,VALID,0.575977,
2000-10-13, 02:48:00,VALID,915.942,VALID,0,VALID,100,VALID,0,VALID,18.3959,VALID,153,VALID,0.441964,
2000-10-13, 02:49:00,VALID,915.926,VALID,0,VALID,100,VALID,0,VALID,18.3117,VALID,150,VALID,0.00211149,
2000-10-13, 02:50:00,VALID,915.905,VALID,0,VALID,100,VALID,0,VALID,18.2438,VALID,132,VALID,0,
2000-10-13, 02:51:00,VALID,915.881,VALID,0,VALID,100,VALID,-0.0169808,VALID,18.2088,VALID,120,VALID,0,
2000-10-13, 02:52:00,VALID,915.869,VALID,0,VALID,100,VALID,0,VALID,18.2083,VALID,134,VALID,0,
2000-10-13, 02:53:00,VALID,915.826,VALID,0,VALID,100,VALID,0,VALID,18.1797,VALID,134,VALID,0,
2000-10-13, 02:54:00,VALID,915.808,VALID,0,VALID,100,VALID,0,VALID,18.099,VALID,134,VALID,0,
2000-10-13, 02:55:00,VALID,915.787,VALID,0,VALID,100,VALID,0,VALID,18.1702,VALID,134,VALID,0,
2000-10-13, 02:56:00,VALID,915.774,VALID,0,VALID,100,VALID,-0.0339617,VALID,18.257,VALID,103,VALID,0,
2000-10-13, 02:57:00,VALID,915.771,VALID,0,VALID,100,VALID,0,VALID,18.2798,VALID,77,VALID,0,
2000-10-13, 02:58:00,VALID,915.758,VALID,0,VALID,100,VALID,0,VALID,18.3248,VALID,50,VALID,0.47526,
2000-10-13, 02:59:00,VALID,915.74,VALID,0,VALID,100,VALID,-0.0339617,VALID,18.3156,VALID,94,VALID,1.00699,
2000-10-13, 03:00:00,VALID,915.723,VALID,0,VALID,100,VALID,-0.0509425,VALID,18.2831,VALID,94,VALID,0.669071,
2000-10-13, 03:01:00,VALID,915.713,VALID,0,VALID,100,VALID,0,VALID,18.2473,VALID,352,VALID,0.575,
2000-10-13, 03:02:00,VALID,915.705,VALID,0,VALID,100,VALID,0,VALID,18.2893,VALID,345,VALID,0.3875,
2000-10-13, 03:03:00,VALID,915.675,VALID,0,VALID,100,VALID,-0.0339617,VALID,18.3317,VALID,354,VALID,0.645904,
2000-10-13, 03:04:00,VALID,915.679,VALID,0,VALID,100,VALID,0,VALID,18.3278,VALID,1,VALID,0.0202206,
2000-10-13, 03:05:00,VALID,915.661,VALID,0,VALID,100,VALID,0,VALID,18.3345,VALID,4,VALID,0.0544643,
2000-10-13, 03:06:00,VALID,915.635,VALID,0,VALID,100,VALID,0,VALID,18.305,VALID,56,VALID,0.390224,
2000-10-13, 03:07:00,VALID,915.637,VALID,0,VALID,100,VALID,0,VALID,18.2794,VALID,74,VALID,0.434966,
2000-10-13, 03:08:00,VALID,915.62,VALID,0,VALID,100,VALID,-0.0169808,VALID,18.2831,VALID,91,VALID,0.442434,
2000-10-13, 03:09:00,VALID,915.618,VALID,0,VALID,100,VALID,0,VALID,18.2468,VALID,91,VALID,0.777232,
2000-10-13, 03:10:00,VALID,915.601,VALID,0,VALID,100,VALID,-0.0339617,VALID,18.2402,VALID,355,VALID,0.422276,
2000-10-13, 03:11:00,VALID,915.589,VALID,0,VALID,100,VALID,0,VALID,18.26,VALID,340,VALID,0.123343,
2000-10-13, 03:12:00,VALID,915.569,VALID,0,VALID,100,VALID,0,VALID,18.2699,VALID,346,VALID,0.142361,
2000-10-13, 03:13:00,VALID,915.552,VALID,0,VALID,100,VALID,-0.0169808,VALID,18.2764,VALID,86,VALID,0.567023,
2000-10-13, 03:14:00,VALID,915.523,VALID,0,VALID,100,VALID,0,VALID,18.2731,VALID,99,VALID,0.547276,
2000-10-13, 03:15:00,VALID,915.521,VALID,0,VALID,100,VALID,-0.0339617,VALID,18.2738,VALID,27,VALID,0.292773,
2000-10-13, 03:16:00,VALID,915.511,VALID,0,VALID,100,VALID,0,VALID,18.2895,VALID,312,VALID,0.566071,
2000-10-13, 03:17:00,VALID,915.485,VALID,0,VALID,100,VALID,0,VALID,18.3084,VALID,331,VALID,0.408573,
2000-10-13, 03:18:00,VALID,915.456,VALID,0,VALID,100,VALID,0,VALID,18.3084,VALID,18,VALID,0.0691636,
2000-10-13, 03:19:00,VALID,915.416,VALID,0,VALID,100,VALID,0.0169808,VALID,18.3114,VALID,107,VALID,0.924777,
2000-10-13, 03:20:00,VALID,915.384,VALID,0,VALID,100,VALID,0.0339617,VALID,18.3179,VALID,107,VALID,0.913061,
2000-10-13, 03:21:00,VALID,915.395,VALID,0,VALID,100,VALID,0.0169808,VALID,18.2824,VALID,60,VALID,0.207348,
2000-10-13, 03:22:00,VALID,915.396,VALID,0,VALID,100,VALID,0,VALID,18.2538,VALID,66,VALID,0.0269326,
2000-10-13, 03:23:00,VALID,915.364,VALID,0,VALID,100,VALID,0,VALID,18.2768,VALID,98,VALID,0.697545,
2000-10-13, 03:24:00,VALID,915.337,VALID,0,VALID,100,VALID,0,VALID,18.2605,VALID,106,VALID,1.11358,
2000-10-13, 03:25:00,VALID,915.318,VALID,0,VALID,100,VALID,0.0169808,VALID,18.212,VALID,106,VALID,1.39891,
2000-10-13, 03:26:00,VALID,915.282,VALID,0,VALID,100,VALID,0.0169808,VALID,18.2145,VALID,92,VALID,1.14779,
2000-10-13, 03:27:00,VALID,915.284,VALID,0,VALID,100,VALID,-0.0169808,VALID,18.2055,VALID,100,VALID,0.922081,
2000-10-13, 03:28:00,VALID,915.275,VALID,0,VALID,100,VALID,0,VALID,18.1763,VALID,98,VALID,0.68149,
2000-10-13, 03:29:00,VALID,915.297,VALID,0,VALID,100,VALID,0,VALID,18.1541,VALID,356,VALID,0.538477,
2000-10-13, 03:30:00,VALID,915.312,VALID,0,VALID,100,VALID,0,VALID,18.2215,VALID,341,VALID,0.482589,
2000-10-13, 03:31:00,VALID,915.309,VALID,0,VALID,100,VALID,0,VALID,18.2897,VALID,332,VALID,0.292019,
2000-10-13, 03:32:00,VALID,915.305,VALID,0,VALID,100,VALID,-0.0169808,VALID,18.3094,VALID,328,VALID,0.267923,
2000-10-13, 03:33:00,VALID,915.291,VALID,0,VALID,100,VALID,-0.0339617,VALID,18.2994,VALID,312,VALID,0.485268,
2000-10-13, 03:34:00,VALID,915.282,VALID,0,VALID,100,VALID,-0.0169808,VALID,18.296,VALID,309,VALID,0.123598,
2000-10-13, 03:35:00,VALID,915.286,VALID,0,VALID,100,VALID,0,VALID,18.2962,VALID,325,VALID,0.00211149,
2000-10-13, 03:36:00,VALID,915.282,VALID,0,VALID,100,VALID,0,VALID,18.2828,VALID,333,VALID,0.0191201,
2000-10-13, 03:37:00,VALID,915.27,VALID,0,VALID,100,VALID,-0.0169808,VALID,18.2798,VALID,360,VALID,0.192188,
2000-10-13, 03:38:00,VALID,915.275,VALID,0,VALID,100,VALID,-0.0169808,VALID,18.2766,VALID,3,VALID,0.101362,
2000-10-13, 03:39:00,VALID,915.275,VALID,0,VALID,100,VALID,0,VALID,18.173,VALID,66,VALID,0.276515,
2000-10-13, 03:40:00,VALID,915.268,VALID,0,VALID,100,VALID,-0.0169808,VALID,18.1248,VALID,98,VALID,0.12066,